| time (UTC) | temp F | wind direction | speed MPH | gust MPH | rain 1hr in | rain 24hr in | rain mn in | humidity % | barometer mb |
| 20260508173931 | 66 | 135 | 1.0 | 3.0 | 0.00 | 0.00 | 0.00 | 29 | 1003.1 |
| 20260508173428 | 65 | 98 | 1.0 | 5.0 | 0.00 | 0.00 | 0.00 | 30 | 1003.2 |
| 20260508172923 | 66 | 78 | 2.0 | 3.0 | 0.00 | 0.00 | 0.00 | 32 | 1003.2 |
| 20260508172421 | 65 | 155 | 2.0 | 6.0 | 0.00 | 0.00 | 0.00 | 31 | 1003.4 |
| 20260508171917 | 64 | 117 | 0.0 | 3.0 | 0.00 | 0.00 | 0.00 | 31 | 1003.5 |
| 20260508171414 | 64 | 118 | 2.0 | 5.0 | 0.00 | 0.00 | 0.00 | 31 | 1003.6 |
| 20260508170910 | 64 | 141 | 1.0 | 3.0 | 0.00 | 0.00 | 0.00 | 31 | 1003.6 |
| 20260508170408 | 64 | 148 | 2.0 | 3.0 | 0.00 | 0.00 | 0.00 | 32 | 1003.8 |
| 20260508165904 | 63 | 140 | 2.0 | 2.0 | 0.00 | 0.00 | 0.00 | 31 | 1003.9 |
| 20260508165403 | 63 | 170 | 2.0 | 3.0 | 0.00 | 0.00 | 0.00 | 32 | 1003.8 |
| 20260508164858 | 63 | 161 | 2.0 | 5.0 | 0.00 | 0.00 | 0.00 | 32 | 1003.8 |
| 20260508164355 | 63 | 170 | 2.0 | 5.0 | 0.00 | 0.00 | 0.00 | 34 | 1004.0 |
| 20260508163852 | 63 | 125 | 1.0 | 2.0 | 0.00 | 0.00 | 0.00 | 31 | 1003.8 |
| 20260508163350 | 62 | 168 | 2.0 | 3.0 | 0.00 | 0.00 | 0.00 | 33 | 1004.2 |
| 20260508162845 | 62 | 177 | 3.0 | 3.0 | 0.00 | 0.00 | 0.00 | 34 | 1004.1 |
| 20260508162343 | 62 | 128 | 1.0 | 5.0 | 0.00 | 0.00 | 0.00 | 33 | 1004.1 |
| 20260508161840 | 62 | 95 | 1.0 | 1.0 | 0.00 | 0.00 | 0.00 | 34 | 1004.0 |
| 20260508161337 | 62 | 162 | 1.0 | 2.0 | 0.00 | 0.00 | 0.00 | 35 | 1004.1 |
| 20260508160834 | 60 | 137 | 1.0 | 2.0 | 0.00 | 0.00 | 0.00 | 36 | 1004.2 |
| 20260508160333 | 59 | 138 | 1.0 | 1.0 | 0.00 | 0.00 | 0.00 | 36 | 1004.3 |
| 20260508155829 | 58 | 156 | 1.0 | 2.0 | 0.00 | 0.00 | 0.00 | 38 | 1004.3 |
| 20260508155326 | 58 | 136 | 0.0 | 2.0 | 0.00 | 0.00 | 0.00 | 36 | 1004.4 |
| 20260508154823 | 58 | 139 | 1.0 | 3.0 | 0.00 | 0.00 | 0.00 | 37 | 1004.6 |
| 20260508154321 | 57 | 154 | 0.0 | 5.0 | 0.00 | 0.00 | 0.00 | 38 | 1004.6 |
| 20260508153817 | 57 | 150 | 0.0 | 1.0 | 0.00 | 0.00 | 0.00 | 38 | 1004.6 |
| 20260508153314 | 57 | 137 | 1.0 | 2.0 | 0.00 | 0.00 | 0.00 | 37 | 1004.4 |
| 20260508152810 | 57 | 128 | 2.0 | 3.0 | 0.00 | 0.00 | 0.00 | 38 | 1004.6 |
| 20260508152307 | 57 | 159 | 3.0 | 3.0 | 0.00 | 0.00 | 0.00 | 37 | 1004.8 |
| 20260508151803 | 57 | 180 | 0.0 | 3.0 | 0.00 | 0.00 | 0.00 | 38 | 1004.8 |
| 20260508151300 | 57 | 150 | 1.0 | 2.0 | 0.00 | 0.00 | 0.00 | 38 | 1004.8 |
| 20260508150756 | 57 | 241 | 2.0 | 3.0 | 0.00 | 0.00 | 0.00 | 37 | 1005.2 |
| 20260508150253 | 57 | 139 | 1.0 | 2.0 | 0.00 | 0.00 | 0.00 | 40 | 1005.0 |
| 20260508145749 | 56 | 149 | 0.0 | 1.0 | 0.00 | 0.00 | 0.00 | 38 | 1004.8 |
| 20260508145246 | 56 | 227 | 1.0 | 2.0 | 0.00 | 0.00 | 0.00 | 39 | 1005.0 |
| 20260508144742 | 57 | 147 | 2.0 | 3.0 | 0.00 | 0.00 | 0.00 | 37 | 1005.0 |
| 20260508144241 | 57 | 141 | 0.0 | 5.0 | 0.00 | 0.00 | 0.00 | 38 | 1005.1 |
| 20260508143738 | 58 | 158 | 1.0 | 2.0 | 0.00 | 0.00 | 0.00 | 37 | 1005.0 |
| 20260508143235 | 57 | 134 | 0.0 | 5.0 | 0.00 | 0.00 | 0.00 | 39 | 1005.0 |
| 20260508142731 | 56 | 153 | 1.0 | 3.0 | 0.00 | 0.00 | 0.00 | 40 | 1005.3 |
| 20260508142228 | 56 | 148 | 0.0 | 3.0 | 0.00 | 0.00 | 0.00 | 41 | 1005.2 |
| 20260508141724 | 56 | 204 | 2.0 | 3.0 | 0.00 | 0.00 | 0.00 | 42 | 1005.2 |
| 20260508141222 | 54 | 123 | 0.0 | 2.0 | 0.00 | 0.00 | 0.00 | 47 | 1005.5 |
| 20260508140719 | 53 | 141 | 0.0 | 2.0 | 0.00 | 0.00 | 0.00 | 49 | 1005.3 |
| 20260508140216 | 52 | 149 | 1.0 | 2.0 | 0.00 | 0.00 | 0.00 | 49 | 1005.5 |
| 20260508135712 | 52 | 154 | 1.0 | 2.0 | 0.00 | 0.00 | 0.00 | 49 | 1005.6 |
| 20260508135208 | 52 | 139 | 1.0 | 3.0 | 0.00 | 0.00 | 0.00 | 50 | 1005.6 |
| 20260508134704 | 51 | 148 | 1.0 | 3.0 | 0.00 | 0.00 | 0.00 | 51 | 1005.7 |
| 20260508134201 | 51 | 158 | 2.0 | 2.0 | 0.00 | 0.00 | 0.00 | 52 | 1005.8 |
| 20260508133658 | 49 | 142 | 1.0 | 2.0 | 0.00 | 0.00 | 0.00 | 55 | 1005.7 |
| 20260508133155 | 49 | 154 | 1.0 | 2.0 | 0.00 | 0.00 | 0.00 | 54 | 1005.8 |
| 20260508132653 | 49 | 167 | 2.0 | 3.0 | 0.00 | 0.00 | 0.00 | 54 | 1005.9 |
| 20260508132150 | 48 | 153 | 2.0 | 2.0 | 0.00 | 0.00 | 0.00 | 53 | 1005.8 |
| 20260508131645 | 48 | 144 | 1.0 | 3.0 | 0.00 | 0.00 | 0.00 | 54 | 1005.9 |
| 20260508131142 | 47 | 157 | 2.0 | 3.0 | 0.00 | 0.00 | 0.00 | 55 | 1005.6 |
| 20260508130639 | 47 | 159 | 2.0 | 2.0 | 0.00 | 0.00 | 0.00 | 55 | 1005.9 |
| 20260508130136 | 47 | 159 | 1.0 | 3.0 | 0.00 | 0.00 | 0.00 | 54 | 1005.8 |
| 20260508125631 | 47 | 160 | 2.0 | 2.0 | 0.00 | 0.00 | 0.00 | 56 | 1005.9 |
| 20260508125129 | 47 | 158 | 2.0 | 2.0 | 0.00 | 0.00 | 0.00 | 56 | 1005.8 |
| 20260508124627 | 46 | 162 | 2.0 | 2.0 | 0.00 | 0.00 | 0.00 | 57 | 1005.7 |
| 20260508124123 | 45 | 157 | 1.0 | 2.0 | 0.00 | 0.00 | 0.00 | 61 | 1005.9 |
| 20260508123622 | 44 | 151 | 1.0 | 1.0 | 0.00 | 0.00 | 0.00 | 63 | 1005.7 |
| 20260508123119 | 44 | 149 | 1.0 | 1.0 | 0.00 | 0.00 | 0.00 | 63 | 1005.8 |
| 20260508122615 | 43 | 147 | 1.0 | 1.0 | 0.00 | 0.00 | 0.00 | 64 | 1005.7 |
| 20260508122112 | 43 | 140 | 1.0 | 1.0 | 0.00 | 0.00 | 0.00 | 66 | 1005.7 |
| 20260508121611 | 42 | 134 | 1.0 | 1.0 | 0.00 | 0.00 | 0.00 | 68 | 1005.9 |
| 20260508121108 | 41 | 118 | 1.0 | 1.0 | 0.00 | 0.00 | 0.00 | 70 | 1005.9 |
| 20260508120605 | 39 | 118 | 1.0 | 1.0 | 0.00 | 0.00 | 0.00 | 72 | 1005.9 |
| 20260508120104 | 37 | 117 | 0.0 | 1.0 | 0.00 | 0.00 | 0.00 | 75 | 1005.8 |
| 20260508115601 | 34 | 117 | 0.0 | 0.0 | 0.00 | 0.00 | 0.00 | 82 | 1005.7 |
| 20260508115057 | 33 | 117 | 0.0 | 0.0 | 0.00 | 0.00 | 0.00 | 84 | 1005.6 |
| 20260508114555 | 33 | 117 | 0.0 | 0.0 | 0.00 | 0.00 | 0.00 | 85 | 1005.8 |
| 20260508114050 | 33 | 118 | 0.0 | 1.0 | 0.00 | 0.00 | 0.00 | 85 | 1005.7 |
| 20260508113548 | 33 | 118 | 0.0 | 0.0 | 0.00 | 0.00 | 0.00 | 85 | 1005.7 |
| 20260508113046 | 32 | 118 | 0.0 | 1.0 | 0.00 | 0.00 | 0.00 | 85 | 1005.7 |
| 20260508112542 | 33 | 119 | 1.0 | 2.0 | 0.00 | 0.00 | 0.00 | 83 | 1005.6 |
| 20260508112039 | 32 | 119 | 0.0 | 1.0 | 0.00 | 0.00 | 0.00 | 85 | 1005.6 |
| 20260508111536 | 32 | 119 | 0.0 | 0.0 | 0.00 | 0.00 | 0.00 | 85 | 1005.7 |
| 20260508111033 | 32 | 119 | 0.0 | 1.0 | 0.00 | 0.00 | 0.00 | 86 | 1005.7 |
| 20260508110531 | 32 | 119 | 0.0 | 0.0 | 0.00 | 0.00 | 0.00 | 86 | 1005.8 |
| 20260508110026 | 32 | 119 | 0.0 | 0.0 | 0.00 | 0.00 | 0.00 | 85 | 1005.7 |
| 20260508105521 | 32 | 119 | 0.0 | 1.0 | 0.00 | 0.00 | 0.00 | 87 | 1005.6 |
| 20260508105019 | 31 | 119 | 0.0 | 0.0 | 0.00 | 0.00 | 0.00 | 87 | 1005.6 |
| 20260508104517 | 31 | 119 | 0.0 | 0.0 | 0.00 | 0.00 | 0.00 | 87 | 1005.8 |
| 20260508104013 | 31 | 119 | 0.0 | 1.0 | 0.00 | 0.00 | 0.00 | 86 | 1005.6 |
| 20260508103510 | 32 | 119 | 0.0 | 0.0 | 0.00 | 0.00 | 0.00 | 86 | 1005.8 |
| 20260508103008 | 31 | 119 | 0.0 | 1.0 | 0.00 | 0.00 | 0.00 | 87 | 1005.6 |
| 20260508102505 | 32 | 118 | 0.0 | 1.0 | 0.00 | 0.00 | 0.00 | 87 | 1005.8 |
| 20260508102003 | 31 | 119 | 0.0 | 0.0 | 0.00 | 0.00 | 0.00 | 86 | 1005.9 |
| 20260508101500 | 32 | 119 | 0.0 | 0.0 | 0.00 | 0.00 | 0.00 | 85 | 1005.7 |
| 20260508100956 | 33 | 119 | 1.0 | 1.0 | 0.00 | 0.00 | 0.00 | 84 | 1005.9 |
| 20260508100455 | 32 | 118 | 0.0 | 0.0 | 0.00 | 0.00 | 0.00 | 85 | 1005.8 |
| 20260508095951 | 32 | 118 | 0.0 | 0.0 | 0.00 | 0.00 | 0.00 | 85 | 1005.9 |
| 20260508095449 | 32 | 119 | 0.0 | 0.0 | 0.00 | 0.00 | 0.00 | 84 | 1005.9 |
| 20260508094946 | 33 | 119 | 0.0 | 0.0 | 0.00 | 0.00 | 0.00 | 84 | 1005.7 |
| 20260508094442 | 33 | 119 | 0.0 | 1.0 | 0.00 | 0.00 | 0.00 | 84 | 1005.8 |
| 20260508093939 | 33 | 118 | 0.0 | 0.0 | 0.00 | 0.00 | 0.00 | 83 | 1005.8 |
| 20260508093436 | 33 | 119 | 0.0 | 1.0 | 0.00 | 0.00 | 0.00 | 83 | 1005.9 |
| 20260508092934 | 33 | 119 | 0.0 | 0.0 | 0.00 | 0.00 | 0.00 | 83 | 1005.8 |
| 20260508092432 | 32 | 119 | 0.0 | 1.0 | 0.00 | 0.00 | 0.00 | 84 | 1005.9 |
| 20260508091930 | 32 | 119 | 1.0 | 1.0 | 0.00 | 0.00 | 0.00 | 85 | 1006.0 |
| 20260508091427 | 32 | 108 | 0.0 | 0.0 | 0.00 | 0.00 | 0.00 | 85 | 1006.0 |
| 20260508090924 | 32 | 103 | 0.0 | 0.0 | 0.00 | 0.00 | 0.00 | 84 | 1005.8 |
| 20260508090423 | 32 | 100 | 0.0 | 2.0 | 0.00 | 0.00 | 0.00 | 84 | 1006.0 |
| 20260508085918 | 32 | 122 | 0.0 | 0.0 | 0.00 | 0.00 | 0.00 | 84 | 1006.1 |
| 20260508085415 | 33 | 122 | 0.0 | 1.0 | 0.00 | 0.00 | 0.00 | 84 | 1006.1 |
| 20260508084911 | 33 | 122 | 0.0 | 1.0 | 0.00 | 0.00 | 0.00 | 84 | 1006.1 |
| 20260508084408 | 33 | 122 | 1.0 | 1.0 | 0.00 | 0.00 | 0.00 | 83 | 1006.1 |
| 20260508083906 | 33 | 122 | 0.0 | 0.0 | 0.00 | 0.00 | 0.00 | 83 | 1005.9 |
| 20260508083403 | 33 | 122 | 0.0 | 0.0 | 0.00 | 0.00 | 0.00 | 82 | 1005.9 |
| 20260508082902 | 33 | 121 | 0.0 | 1.0 | 0.00 | 0.00 | 0.00 | 83 | 1005.7 |
| 20260508082400 | 33 | 124 | 0.0 | 0.0 | 0.00 | 0.00 | 0.00 | 83 | 1006.0 |
| 20260508081858 | 33 | 124 | 0.0 | 1.0 | 0.00 | 0.00 | 0.00 | 82 | 1006.0 |
| 20260508081354 | 33 | 119 | 0.0 | 0.0 | 0.00 | 0.00 | 0.00 | 82 | 1005.6 |
| 20260508080851 | 33 | 119 | 0.0 | 0.0 | 0.00 | 0.00 | 0.00 | 80 | 1005.9 |
| 20260508080350 | 34 | 102 | 0.0 | 1.0 | 0.00 | 0.00 | 0.00 | 79 | 1005.9 |
| 20260508075846 | 35 | 99 | 1.0 | 1.0 | 0.00 | 0.00 | 0.00 | 75 | 1006.1 |
| 20260508075343 | 36 | 137 | 0.0 | 0.0 | 0.00 | 0.00 | 0.00 | 73 | 1005.9 |
| 20260508074841 | 35 | 137 | 0.0 | 0.0 | 0.00 | 0.00 | 0.00 | 74 | 1005.9 |
| 20260508074337 | 35 | 137 | 0.0 | 1.0 | 0.00 | 0.00 | 0.00 | 76 | 1005.9 |
| 20260508073834 | 34 | 137 | 0.0 | 0.0 | 0.00 | 0.00 | 0.00 | 78 | 1005.8 |
| 20260508073332 | 34 | 137 | 1.0 | 1.0 | 0.00 | 0.00 | 0.00 | 81 | 1006.2 |
| 20260508072828 | 33 | 136 | 0.0 | 0.0 | 0.00 | 0.00 | 0.00 | 79 | 1006.0 |
| 20260508072325 | 33 | 136 | 0.0 | 0.0 | 0.00 | 0.00 | 0.00 | 80 | 1005.9 |
| 20260508071822 | 33 | 136 | 0.0 | 0.0 | 0.00 | 0.00 | 0.00 | 81 | 1006.2 |
| 20260508071321 | 32 | 136 | 0.0 | 0.0 | 0.00 | 0.00 | 0.00 | 81 | 1006.1 |
| 20260508070818 | 32 | 136 | 0.0 | 0.0 | 0.00 | 0.00 | 0.00 | 80 | 1006.2 |
| 20260508070316 | 33 | 136 | 0.0 | 0.0 | 0.00 | 0.00 | 0.00 | 80 | 1006.2 |
| 20260508065813 | 33 | 136 | 0.0 | 0.0 | 0.00 | 0.00 | 0.00 | 80 | 1006.1 |
| 20260508065311 | 33 | 136 | 0.0 | 0.0 | 0.00 | 0.00 | 0.00 | 80 | 1006.4 |
| 20260508064809 | 33 | 136 | 0.0 | 0.0 | 0.00 | 0.00 | 0.00 | 79 | 1006.2 |
| 20260508064306 | 34 | 136 | 0.0 | 0.0 | 0.00 | 0.00 | 0.00 | 79 | 1006.2 |
| 20260508063804 | 34 | 136 | 0.0 | 0.0 | 0.00 | 0.00 | 0.00 | 78 | 1006.4 |
| 20260508063302 | 34 | 136 | 0.0 | 0.0 | 0.00 | 0.00 | 0.00 | 77 | 1006.3 |
| 20260508062759 | 35 | 136 | 1.0 | 1.0 | 0.00 | 0.00 | 0.00 | 78 | 1006.3 |
| 20260508062256 | 35 | 136 | 0.0 | 1.0 | 0.00 | 0.00 | 0.00 | 76 | 1006.3 |
| 20260508061753 | 35 | 136 | 0.0 | 1.0 | 0.00 | 0.00 | 0.00 | 76 | 1006.3 |
| 20260508061250 | 36 | 136 | 0.0 | 0.0 | 0.00 | 0.00 | 0.00 | 76 | 1006.4 |
| 20260508060746 | 36 | 136 | 0.0 | 0.0 | 0.00 | 0.00 | 0.00 | 72 | 1006.5 |
| 20260508060245 | 37 | 136 | 0.0 | 0.0 | 0.00 | 0.00 | 0.00 | 68 | 1006.5 |
| 20260508055739 | 37 | 136 | 0.0 | 0.0 | 0.00 | 0.00 | 0.00 | 67 | 1006.4 |
| 20260508055237 | 37 | 136 | 0.0 | 0.0 | 0.00 | 0.00 | 0.00 | 65 | 1006.4 |
| 20260508054733 | 37 | 136 | 0.0 | 0.0 | 0.00 | 0.00 | 0.00 | 64 | 1006.3 |
| 20260508054231 | 37 | 136 | 0.0 | 0.0 | 0.00 | 0.00 | 0.00 | 64 | 1006.3 |
| 20260508053728 | 38 | 137 | 0.0 | 0.0 | 0.00 | 0.00 | 0.00 | 66 | 1006.4 |
| 20260508053225 | 38 | 137 | 0.0 | 0.0 | 0.00 | 0.00 | 0.00 | 65 | 1006.5 |
| 20260508052722 | 39 | 137 | 0.0 | 0.0 | 0.00 | 0.00 | 0.00 | 64 | 1006.4 |
| 20260508052219 | 39 | 137 | 0.0 | 0.0 | 0.00 | 0.00 | 0.00 | 65 | 1006.7 |
| 20260508051716 | 39 | 137 | 0.0 | 0.0 | 0.00 | 0.00 | 0.00 | 61 | 1006.4 |
| 20260508051211 | 40 | 137 | 0.0 | 0.0 | 0.00 | 0.00 | 0.00 | 60 | 1006.4 |
| 20260508050708 | 40 | 137 | 0.0 | 0.0 | 0.00 | 0.00 | 0.00 | 59 | 1006.4 |
| 20260508050206 | 41 | 137 | 0.0 | 0.0 | 0.00 | 0.00 | 0.00 | 57 | 1006.6 |
| 20260508045700 | 42 | 137 | 0.0 | 0.0 | 0.00 | 0.00 | 0.00 | 56 | 1006.7 |
| 20260508045159 | 42 | 137 | 0.0 | 0.0 | 0.00 | 0.00 | 0.00 | 55 | 1006.6 |
| 20260508044656 | 42 | 137 | 0.0 | 0.0 | 0.00 | 0.00 | 0.00 | 55 | 1006.8 |
| 20260508044152 | 42 | 137 | 0.0 | 0.0 | 0.00 | 0.00 | 0.00 | 55 | 1006.6 |
| 20260508043648 | 43 | 137 | 0.0 | 0.0 | 0.00 | 0.00 | 0.00 | 54 | 1006.5 |
| 20260508043146 | 43 | 137 | 0.0 | 0.0 | 0.00 | 0.00 | 0.00 | 54 | 1006.8 |
| 20260508042642 | 43 | 137 | 0.0 | 0.0 | 0.00 | 0.00 | 0.00 | 54 | 1006.7 |
| 20260508042140 | 42 | 137 | 0.0 | 0.0 | 0.00 | 0.00 | 0.00 | 55 | 1006.6 |
| 20260508041636 | 42 | 137 | 0.0 | 0.0 | 0.00 | 0.00 | 0.00 | 55 | 1006.7 |
| 20260508041133 | 43 | 137 | 0.0 | 0.0 | 0.00 | 0.00 | 0.00 | 53 | 1006.9 |
| 20260508040629 | 43 | 137 | 0.0 | 0.0 | 0.00 | 0.00 | 0.00 | 53 | 1006.8 |
| 20260508040127 | 43 | 137 | 0.0 | 0.0 | 0.00 | 0.00 | 0.00 | 53 | 1006.8 |
| 20260508035624 | 42 | 137 | 0.0 | 0.0 | 0.00 | 0.00 | 0.00 | 54 | 1006.8 |
| 20260508035122 | 42 | 137 | 0.0 | 0.0 | 0.00 | 0.00 | 0.00 | 55 | 1007.0 |
| 20260508034618 | 43 | 137 | 0.0 | 0.0 | 0.00 | 0.00 | 0.00 | 52 | 1006.8 |
| 20260508034115 | 44 | 137 | 0.0 | 0.0 | 0.00 | 0.00 | 0.00 | 51 | 1006.8 |
| 20260508033613 | 44 | 137 | 0.0 | 0.0 | 0.00 | 0.00 | 0.00 | 50 | 1006.9 |
| 20260508033111 | 44 | 137 | 0.0 | 0.0 | 0.00 | 0.00 | 0.00 | 50 | 1007.2 |
| 20260508032607 | 44 | 137 | 0.0 | 0.0 | 0.00 | 0.00 | 0.00 | 50 | 1006.9 |
| 20260508032105 | 44 | 137 | 0.0 | 0.0 | 0.00 | 0.00 | 0.00 | 50 | 1006.9 |
| 20260508031602 | 44 | 137 | 0.0 | 0.0 | 0.00 | 0.00 | 0.00 | 50 | 1006.9 |
| 20260508031057 | 45 | 137 | 0.0 | 1.0 | 0.00 | 0.00 | 0.00 | 49 | 1006.9 |
| 20260508030554 | 45 | 137 | 0.0 | 0.0 | 0.00 | 0.00 | 0.00 | 48 | 1006.9 |
| 20260508030052 | 45 | 137 | 0.0 | 0.0 | 0.00 | 0.00 | 0.00 | 48 | 1006.9 |
| 20260508025548 | 45 | 137 | 0.0 | 0.0 | 0.00 | 0.00 | 0.00 | 48 | 1006.9 |
| 20260508025045 | 45 | 137 | 0.0 | 0.0 | 0.00 | 0.00 | 0.00 | 47 | 1007.0 |
| 20260508024541 | 45 | 137 | 0.0 | 0.0 | 0.00 | 0.00 | 0.00 | 47 | 1006.7 |
| 20260508024038 | 45 | 137 | 0.0 | 0.0 | 0.00 | 0.00 | 0.00 | 46 | 1006.6 |
| 20260508023534 | 45 | 137 | 0.0 | 0.0 | 0.00 | 0.00 | 0.00 | 48 | 1006.9 |
| 20260508023032 | 45 | 137 | 0.0 | 0.0 | 0.00 | 0.00 | 0.00 | 47 | 1007.2 |
| 20260508022528 | 46 | 137 | 0.0 | 0.0 | 0.00 | 0.00 | 0.00 | 46 | 1006.8 |
| 20260508022025 | 46 | 137 | 0.0 | 0.0 | 0.00 | 0.00 | 0.00 | 46 | 1007.0 |
| 20260508021521 | 47 | 137 | 0.0 | 0.0 | 0.00 | 0.00 | 0.00 | 45 | 1006.9 |
| 20260508021017 | 48 | 137 | 0.0 | 0.0 | 0.00 | 0.00 | 0.00 | 43 | 1006.7 |
| 20260508020515 | 48 | 137 | 0.0 | 1.0 | 0.00 | 0.00 | 0.00 | 42 | 1006.9 |
| 20260508020012 | 49 | 137 | 0.0 | 1.0 | 0.00 | 0.00 | 0.00 | 42 | 1006.9 |
| 20260508015509 | 49 | 137 | 0.0 | 0.0 | 0.00 | 0.00 | 0.00 | 41 | 1006.6 |
| 20260508015006 | 49 | 137 | 0.0 | 1.0 | 0.00 | 0.00 | 0.00 | 41 | 1006.8 |
| 20260508014503 | 49 | 137 | 0.0 | 0.0 | 0.00 | 0.00 | 0.00 | 41 | 1006.5 |
| 20260508013959 | 50 | 137 | 0.0 | 0.0 | 0.00 | 0.00 | 0.00 | 42 | 1006.7 |
| 20260508013455 | 50 | 137 | 0.0 | 0.0 | 0.00 | 0.00 | 0.00 | 40 | 1006.6 |
| 20260508012952 | 51 | 137 | 0.0 | 0.0 | 0.00 | 0.00 | 0.00 | 39 | 1006.6 |
| 20260508012449 | 51 | 137 | 0.0 | 0.0 | 0.00 | 0.00 | 0.00 | 39 | 1006.5 |
| 20260508011947 | 51 | 156 | 1.0 | 1.0 | 0.00 | 0.00 | 0.00 | 38 | 1006.5 |
| 20260508011445 | 52 | 121 | 0.0 | 1.0 | 0.00 | 0.00 | 0.00 | 38 | 1006.5 |
| 20260508010942 | 52 | 128 | 1.0 | 1.0 | 0.00 | 0.00 | 0.00 | 38 | 1006.5 |
| 20260508010439 | 53 | 146 | 0.0 | 1.0 | 0.00 | 0.00 | 0.00 | 37 | 1006.4 |
| 20260508005936 | 53 | 126 | 0.0 | 1.0 | 0.00 | 0.00 | 0.00 | 37 | 1006.5 |
| 20260508005432 | 54 | 148 | 1.0 | 1.0 | 0.00 | 0.00 | 0.00 | 36 | 1006.2 |
| 20260508004929 | 54 | 137 | 1.0 | 2.0 | 0.00 | 0.00 | 0.00 | 36 | 1006.4 |
| 20260508004425 | 54 | 127 | 0.0 | 2.0 | 0.00 | 0.00 | 0.00 | 35 | 1006.5 |
| 20260508003922 | 54 | 113 | 0.0 | 0.0 | 0.00 | 0.00 | 0.00 | 37 | 1006.3 |
| 20260508003419 | 55 | 133 | 0.0 | 1.0 | 0.00 | 0.00 | 0.00 | 36 | 1006.3 |
| 20260508002916 | 55 | 108 | 2.0 | 3.0 | 0.00 | 0.00 | 0.00 | 34 | 1006.7 |
| 20260508002407 | 55 | 196 | 1.0 | 1.0 | 0.00 | 0.00 | 0.00 | 33 | 1006.5 |
| 20260508001903 | 56 | 118 | 2.0 | 3.0 | 0.00 | 0.00 | 0.00 | 33 | 1006.4 |
| 20260508001359 | 56 | 151 | 1.0 | 2.0 | 0.00 | 0.00 | 0.00 | 33 | 1006.3 |
| 20260508000856 | 56 | 157 | 1.0 | 2.0 | 0.00 | 0.00 | 0.00 | 33 | 1006.6 |
| 20260508000352 | 55 | 108 | 1.0 | 3.0 | 0.00 | 0.00 | 0.00 | 33 | 1006.6 |
| 20260507235848 | 56 | 260 | 2.0 | 3.0 | 0.00 | 0.00 | 0.00 | 32 | 1006.6 |
| 20260507235346 | 56 | 146 | 1.0 | 3.0 | 0.00 | 0.00 | 0.00 | 32 | 1006.7 |
| 20260507234843 | 56 | 113 | 2.0 | 7.0 | 0.00 | 0.00 | 0.00 | 32 | 1006.6 |
| 20260507234340 | 56 | 30 | 3.0 | 5.0 | 0.00 | 0.00 | 0.00 | 31 | 1006.7 |
| 20260507233836 | 55 | 241 | 2.0 | 5.0 | 0.00 | 0.00 | 0.00 | 32 | 1006.7 |
| 20260507233334 | 56 | 205 | 4.0 | 5.0 | 0.00 | 0.00 | 0.00 | 31 | 1006.7 |
| 20260507232832 | 56 | 168 | 4.0 | 7.0 | 0.00 | 0.00 | 0.00 | 30 | 1006.7 |
| 20260507232328 | 57 | 77 | 2.0 | 7.0 | 0.00 | 0.00 | 0.00 | 30 | 1006.7 |
| 20260507231826 | 57 | 148 | 0.0 | 6.0 | 0.00 | 0.00 | 0.00 | 32 | 1006.6 |
| 20260507231322 | 57 | 314 | 2.0 | 6.0 | 0.00 | 0.00 | 0.00 | 31 | 1006.8 |
| 20260507230818 | 57 | 43 | 3.0 | 6.0 | 0.00 | 0.00 | 0.00 | 31 | 1006.8 |
| 20260507230316 | 57 | 194 | 2.0 | 3.0 | 0.00 | 0.00 | 0.00 | 30 | 1006.8 |
| 20260507225816 | 57 | 265 | 3.0 | 3.0 | 0.00 | 0.00 | 0.00 | 30 | 1006.9 |
| 20260507225312 | 59 | 62 | 3.0 | 3.0 | 0.00 | 0.00 | 0.00 | 28 | 1006.9 |
| 20260507224808 | 58 | 317 | 2.0 | 3.0 | 0.00 | 0.00 | 0.00 | 29 | 1006.9 |
| 20260507224305 | 57 | 345 | 3.0 | 6.0 | 0.00 | 0.00 | 0.00 | 30 | 1006.8 |
| 20260507223801 | 58 | 294 | 2.0 | 7.0 | 0.00 | 0.00 | 0.00 | 29 | 1007.0 |
| 20260507223257 | 57 | 128 | 2.0 | 6.0 | 0.00 | 0.00 | 0.00 | 30 | 1006.8 |
| 20260507222754 | 58 | 174 | 1.0 | 6.0 | 0.00 | 0.00 | 0.00 | 31 | 1007.0 |
| 20260507222250 | 56 | 274 | 3.0 | 3.0 | 0.00 | 0.00 | 0.00 | 30 | 1006.8 |
| 20260507221748 | 57 | 230 | 3.0 | 6.0 | 0.00 | 0.00 | 0.00 | 29 | 1007.3 |
| 20260507221244 | 56 | 105 | 0.0 | 3.0 | 0.00 | 0.00 | 0.00 | 30 | 1007.1 |
| 20260507220740 | 57 | 86 | 2.0 | 8.0 | 0.00 | 0.00 | 0.00 | 30 | 1006.9 |
| 20260507220239 | 58 | 90 | 2.0 | 3.0 | 0.00 | 0.00 | 0.00 | 29 | 1007.1 |
| 20260507215734 | 58 | 303 | 4.0 | 5.0 | 0.00 | 0.00 | 0.00 | 30 | 1007.1 |
| 20260507215233 | 58 | 170 | 2.0 | 3.0 | 0.00 | 0.00 | 0.00 | 30 | 1007.3 |
| 20260507214729 | 57 | 249 | 2.0 | 5.0 | 0.00 | 0.00 | 0.00 | 27 | 1007.3 |
| 20260507214227 | 56 | 58 | 2.0 | 6.0 | 0.00 | 0.00 | 0.00 | 30 | 1007.3 |
| 20260507213722 | 56 | 174 | 3.0 | 7.0 | 0.00 | 0.00 | 0.00 | 29 | 1007.1 |
| 20260507213219 | 57 | 180 | 3.0 | 6.0 | 0.00 | 0.00 | 0.00 | 30 | 1007.2 |
| 20260507212715 | 59 | 75 | 4.0 | 6.0 | 0.00 | 0.00 | 0.00 | 28 | 1007.3 |
| 20260507212212 | 57 | 163 | 3.0 | 8.0 | 0.00 | 0.00 | 0.00 | 29 | 1007.2 |
| 20260507211709 | 59 | 130 | 2.0 | 5.0 | 0.00 | 0.00 | 0.00 | 28 | 1007.2 |
| 20260507211204 | 58 | 178 | 2.0 | 3.0 | 0.00 | 0.00 | 0.00 | 29 | 1007.2 |
| 20260507210702 | 59 | 59 | 4.0 | 10.0 | 0.00 | 0.00 | 0.00 | 27 | 1007.5 |
| 20260507210159 | 57 | 137 | 0.0 | 6.0 | 0.00 | 0.00 | 0.00 | 30 | 1007.4 |
| 20260507205655 | 59 | 57 | 5.0 | 7.0 | 0.00 | 0.00 | 0.00 | 27 | 1007.4 |
| 20260507205152 | 60 | 137 | 3.0 | 5.0 | 0.00 | 0.00 | 0.00 | 28 | 1007.4 |
| 20260507204648 | 60 | 103 | 2.0 | 2.0 | 0.00 | 0.00 | 0.00 | 27 | 1007.4 |
| 20260507204146 | 60 | 71 | 3.0 | 7.0 | 0.00 | 0.00 | 0.00 | 27 | 1007.4 |
| 20260507203644 | 59 | 205 | 3.0 | 5.0 | 0.00 | 0.00 | 0.00 | 27 | 1007.7 |
| 20260507203141 | 60 | 158 | 1.0 | 6.0 | 0.00 | 0.00 | 0.00 | 29 | 1007.9 |
| 20260507202636 | 58 | 154 | 2.0 | 6.0 | 0.00 | 0.00 | 0.00 | 29 | 1007.8 |
| 20260507202133 | 59 | 334 | 2.0 | 5.0 | 0.00 | 0.00 | 0.00 | 27 | 1007.8 |
| 20260507201628 | 57 | 115 | 2.0 | 3.0 | 0.00 | 0.00 | 0.00 | 29 | 1007.9 |
| 20260507201125 | 56 | 180 | 1.0 | 2.0 | 0.00 | 0.00 | 0.00 | 31 | 1007.9 |
| 20260507200621 | 58 | 264 | 3.0 | 8.0 | 0.00 | 0.00 | 0.00 | 29 | 1008.1 |
| 20260507200117 | 58 | 333 | 5.0 | 8.0 | 0.00 | 0.00 | 0.00 | 28 | 1008.0 |
| 20260507195614 | 58 | 118 | 0.0 | 3.0 | 0.00 | 0.00 | 0.00 | 28 | 1008.2 |
| 20260507195112 | 57 | 112 | 1.0 | 3.0 | 0.00 | 0.00 | 0.00 | 29 | 1008.4 |
| 20260507194608 | 57 | 32 | 3.0 | 5.0 | 0.00 | 0.00 | 0.00 | 30 | 1008.2 |
| 20260507194103 | 58 | 70 | 3.0 | 6.0 | 0.00 | 0.00 | 0.00 | 27 | 1008.5 |
| 20260507193601 | 57 | 54 | 2.0 | 10.0 | 0.00 | 0.00 | 0.00 | 30 | 1008.4 |
| 20260507193058 | 57 | 315 | 2.0 | 8.0 | 0.00 | 0.00 | 0.00 | 31 | 1008.5 |
| 20260507192554 | 57 | 178 | 2.0 | 6.0 | 0.00 | 0.00 | 0.00 | 32 | 1008.6 |
| 20260507192051 | 55 | 158 | 2.0 | 2.0 | 0.00 | 0.00 | 0.00 | 31 | 1008.3 |
| 20260507191546 | 55 | 100 | 0.0 | 2.0 | 0.00 | 0.00 | 0.00 | 31 | 1008.7 |
| 20260507191044 | 56 | 256 | 2.0 | 3.0 | 0.00 | 0.00 | 0.00 | 30 | 1008.6 |
| 20260507190541 | 55 | 239 | 2.0 | 6.0 | 0.00 | 0.00 | 0.00 | 34 | 1008.9 |
| 20260507190040 | 53 | 110 | 2.0 | 3.0 | 0.00 | 0.00 | 0.00 | 34 | 1008.7 |
| 20260507185538 | 55 | 76 | 1.0 | 2.0 | 0.00 | 0.00 | 0.00 | 30 | 1008.6 |
| 20260507185034 | 54 | 132 | 1.0 | 2.0 | 0.00 | 0.00 | 0.00 | 32 | 1008.6 |
| 20260507184532 | 55 | 194 | 1.0 | 3.0 | 0.00 | 0.00 | 0.00 | 31 | 1008.6 |
| 20260507184030 | 54 | 117 | 0.0 | 2.0 | 0.00 | 0.00 | 0.00 | 32 | 1008.9 |
| 20260507183525 | 54 | 115 | 3.0 | 7.0 | 0.00 | 0.00 | 0.00 | 31 | 1008.6 |
| 20260507183023 | 52 | 98 | 1.0 | 2.0 | 0.00 | 0.00 | 0.00 | 33 | 1008.9 |
| 20260507182519 | 54 | 196 | 1.0 | 2.0 | 0.00 | 0.00 | 0.00 | 30 | 1009.1 |
| 20260507182015 | 55 | 149 | 1.0 | 6.0 | 0.00 | 0.00 | 0.00 | 29 | 1009.1 |
| 20260507181512 | 57 | 272 | 8.0 | 13.0 | 0.00 | 0.00 | 0.00 | 29 | 1009.0 |
| 20260507181008 | 57 | 237 | 2.0 | 3.0 | 0.00 | 0.00 | 0.00 | 30 | 1009.1 |
| 20260507180504 | 55 | 323 | 4.0 | 6.0 | 0.00 | 0.00 | 0.00 | 30 | 1008.9 |
| 20260507180001 | 56 | 130 | 3.0 | 6.0 | 0.00 | 0.00 | 0.00 | 28 | 1009.2 |
| 20260507175458 | 56 | 174 | 1.0 | 2.0 | 0.00 | 0.00 | 0.00 | 30 | 1009.3 |
| 20260507174955 | 57 | 143 | 1.0 | 6.0 | 0.00 | 0.00 | 0.00 | 28 | 1009.5 |
| 20260507174452 | 56 | 20 | 4.0 | 7.0 | 0.00 | 0.00 | 0.00 | 30 | 1009.4 |